Probability
0 0 0 0 0 0 0 0 0 0 0 0 0 0 0 0 0 0 0 0 0 0 0 0 0 0 0 0 0 0 0 0 0 0 0 0 0 0 0 0 0 0 0
0 0 0 0 0 0 0 0 0 0 0 0 0 0 0 0 0 0 0 0 0 0 0 0 0 0 0 0 0 0 0 0 0 0 0 0 0 0 0 0 0 0 0
0 0 0 0 0 0 0 0 0 0 0 0 0 0 0 0 0 0 0 0 0 0 0 0 0 0 0 0 0 0 0 0 0 0 0 0 0 0 0 0 0 0 0
0 0 0 0 0 0 0 0 0 0 0 0 0 0 0 0 0 0 0 0 0 0 0 0 0 0 0 0 0 0 0 0 0 0 0 0 0 0 0 0 0 0 0
0 0 0 0 0 0 0 0 0 0 0 0 0 0 0 0 0 0 0 0 0 0 0 0 0 0 0 0 0 0 0 0 0 0 0 0 0 0 0 0 0 0 0
0 0 0 0 0 0 0 0 0 0 0 0 0 0 0 0 0 0 0 0 0 0 0 0 0 0 0 0 0 0 0 0 0 0 0 0 0 0 0 0 0 0 0
0 0 0 0 0 0 0 0 0 0 0 0 0 0 0 0 0 0 0 0 0 0 0 0 0 0 0 0 0 0 0 0 0 0 0 0 0 0 0 0 0 0 0
0 0 0 0 0 0 0 0 0 0 0 0 0 0 0 0 0 0 0 0 0 0 0 0 0 0 0 0 0 0 0 0 0 0 0 0 0 0 0 0 0 0 0
0 0 0 0 0 0 0 0 0 0 0 0 0 0 0 0 0 0 0 0 0 0 0 0 0 0 0 0 0 0 0 0 0 0 0 0 0 0 0 0 0 0 0
0 0 0 0 0 0 0 0 0 0 0 0 0 0 0 0 0 0 0 0 0 0 0 0 0 0 0 0 0 0 0 0 0 0 0 0 0 0 0 0 0 0 0
0 0 0 0 0 0 0 0 0 0 0 0 0 0 0 0 0 0 0 0 0 0 0 0 0 0 0 0 0 0 0 0 0 0 0 0 0 0 0 0 0 0 0
0 0 0 0 0 0 0 0 0 0 0 0 0 0 0 0 0 0 0 0 0 0 0 0 0 0 0 0 0 0 0 0 0 0 0 0 0 0 0 0 0 0 0
0 0 0 0 0 0 0 0 0 0 0 0 0 0 0 0 0 0 0 0 0 0 0 0 0 0 0 0 0 0 0 0 0 0 0 0 0 0 0 0 0 0 0
0 0 0 0 0 0 0 0 0 0 0 0 0 0 0 0 0 0 0 0 0 0 0 0 0 0 0 0 0 0 0 0 0 0 0 0 0 0 0 0 0 0 0
0 0 0 0 0 0 0 0 0 0 0 0 0 0 0 0 0 0 0 0 0 0 0 0 0 0 0 0 0 0 0 0 0 0 0 0 0 0 0 0 0 0 0
0 0 0 0 0 0 0 0 0 0 0 0 0 0 0 0 0 0 0 0 0 0 0 0 0 0 0 0 0 0 0 0 0 0 0 0 0 0 0 0 0 0 0
0 0 0 0 0 0 0 0 0 0 0 0 0 0 0 0 0 0 0 0 0 0 0 0 0 0 0 0 0 0 0 0 0 0 0 0 0 0 0 0 0 0 0
0 0 0 0 0 0 0 0 0 0 0 0 0 0 0 0 0 0 0 0 0 0 0 0 0 0 0 0 0 0 0 0 0 0 0 0 0 0 0 0 0 0 0
0 0 0 0 0 0 0 0 0 0 0 0 0 0 0 0 0 0 0 0 0 0 0 0 0 0 0 0 0 0 0 0 0 0 0 0 0 0 0 0 0 0 0
0 0 0 0 0 0 0 0 0 0 0 0 0 0 0 0 0 0 0 0 0 0 0 0 0 0 0 0 0 0 0 0 0 0 0 0 0 0 0 0 0 0 0
0 0 0 0 0 0 0 0 0 0 0 0 0 0 0 0 0 0 0 0 0 0 0 0 0 0 0 0 0 0 0 0 0 0 0 0 0 0 0 0 0 0 0
0 0 0 0 0 0 0 0 0 0 0 0 0 0 0 0 0 0 0 0 0 0 0 0 0 0 0 0 0 0 0 0 0 0 0 0 0 0 0 0 0 0 0
0 0 0 0 0 0 0 0 0 0 0 0 0 0 0 0 0 0 0 0 0 0 0 0 0 0 0 0 0 0 0 0 0 0 0 0 0 0 0 0 0 0 0
0 0 0 0 0 0 0 0 0 0 0 0 0 0 0 0 0 0 0 0 0 0 0 0 0 0 0 0 0 0 0 0 0 0 0 0 0 0 0 0 0 0 0
0 0 0 0 0 0 0 0 0 0 0 0 0 0 0 0 0 0 0 0 0 0 0 0 0 0 0 0 0 0 0 0 0 0 0 0 0 0 0 0 0 0 0
0 0 0 0 0 0 0 0 0 0 0 0 0 0 0 0 0 0 0 0 0 0 0 0 0 0 0 0 0 0 0 0 0 0 0 0 0 0 0 0 0 0 0
Wind_Speed
5 5 5 4 5 5 5 6 7 7 8 9 9 9 9 8 7 7 9 9 10 10 10 12 13 10 9 8 7 7 7 6 7 5 5 6 11 11 11 10 9 11 11
4 4 5 5 4 5 5 6 6 7 8 8 9 9 9 9 8 8 9 10 11 12 11 12 13 10 13 10 9 10 9 7 7 6 5 5 8 14 12 12 10 9 8
4 5 5 6 5 6 6 6 6 7 8 8 8 9 9 9 9 9 10 10 11 12 12 13 13 12 15 10 11 11 8 7 6 6 6 4 4 10 11 8 7 5 7
5 5 6 6 6 7 7 7 7 8 8 9 9 9 9 10 10 10 10 10 11 12 12 13 13 14 15 13 12 12 9 9 8 6 5 5 4 8 11 10 8 7 7
6 6 7 8 8 8 8 8 8 8 9 9 10 10 10 9 9 10 10 11 12 13 13 13 13 14 17 15 12 11 11 10 9 8 6 5 7 11 14 11 10 8 6
7 8 8 8 9 10 10 10 11 10 10 10 10 11 11 10 17 22 17 11 12 13 14 14 13 15 16 23 25 21 19 17 15 14 12 11 14 11 11 12 11 9 8
7 9 9 10 11 13 12 12 13 12 11 12 12 12 13 16 25 25 23 15 13 14 14 14 12 12 14 14 19 25 25 30 28 19 17 17 13 14 17 17 16 12 9
9 10 10 11 13 13 13 14 14 12 12 13 14 13 14 18 27 28 26 17 14 15 15 15 16 15 14 15 14 16 18 19 23 20 18 14 10 13 18 17 16 9 4
10 10 10 10 12 12 14 15 14 12 14 14 14 15 16 20 28 30 30 13 13 16 16 15 16 17 22 27 19 18 19 18 25 25 20 15 16 20 20 11 12 11 6
10 10 11 10 11 13 15 15 14 13 15 16 17 16 16 18 27 33 33 14 15 15 14 14 17 19 25 28 21 18 21 17 11 14 17 17 15 18 29 21 17 15 9
12 13 13 12 13 14 15 15 15 16 18 18 19 19 18 20 27 34 35 18 15 15 13 12 13 24 27 29 27 19 23 17 11 13 12 10 9 11 16 16 14 13 12
14 15 15 14 13 13 15 16 16 16 19 19 19 20 17 18 22 27 33 31 27 18 15 13 14 25 27 28 23 24 29 24 11 12 13 14 14 13 10 10 9 5 4
13 14 14 15 13 13 14 17 16 14 15 16 16 18 17 15 17 29 31 33 33 21 14 21 24 28 27 22 26 29 22 15 13 14 15 15 12 9 8 8 8 7 7
14 16 15 15 15 13 12 13 13 13 14 15 16 17 17 16 14 13 13 16 20 19 15 15 23 28 25 21 15 18 15 13 13 13 12 9 9 10 11 11 10 11 9
15 16 16 15 15 14 13 12 15 15 17 19 16 16 18 17 19 28 23 16 13 15 16 12 11 10 11 11 10 11 11 12 13 12 11 11 11 12 11 11 10 11 10
16 15 13 13 13 14 15 15 23 26 32 35 35 32 24 30 36 37 37 37 37 35 25 15 13 11 11 10 10 10 11 11 11 11 11 11 12 12 11 9 10 10 10
15 15 14 14 14 15 15 16 17 19 27 32 34 35 34 35 37 36 35 35 35 33 21 15 14 12 10 9 9 9 10 9 9 10 10 11 11 12 12 11 11 11 10
14 15 15 13 14 14 14 15 16 17 17 15 21 29 32 33 33 33 32 28 19 18 14 14 13 12 10 9 9 8 7 8 8 9 10 11 12 12 13 13 12 12 10
14 12 12 13 13 14 14 15 15 16 16 16 14 17 21 25 29 29 26 15 13 12 12 12 12 11 8 8 7 7 8 9 9 10 10 11 11 12 11 11 11 13 11
11 16 16 13 13 13 13 14 14 14 15 14 13 13 12 12 12 13 12 11 12 12 11 11 10 9 7 7 7 7 8 8 10 9 9 10 10 10 11 12 11 11 10
11 12 16 13 12 13 13 14 14 14 13 12 12 14 22 13 11 12 11 11 10 9 9 8 7 6 6 6 7 8 9 8 8 8 9 9 9 9 9 10 10 10 9
10 10 11 11 12 12 13 13 12 12 13 13 12 13 19 11 10 10 10 10 9 7 4 1 2 2 3 5 7 8 8 8 8 9 9 9 9 9 10 10 10 10 10
9 11 11 11 11 14 13 12 12 11 12 12 11 11 10 9 9 10 9 10 9 8 6 5 4 4 5 5 4 5 7 8 8 10 10 10 10 10 10 11 12 11 10
8 9 10 10 10 10 11 12 12 12 12 11 11 10 10 10 9 10 10 9 9 9 9 9 9 10 11 8 7 6 6 7 8 8 10 11 10 10 9 10 10 11 10
7 8 9 9 10 10 11 11 11 12 11 11 11 10 10 10 10 9 9 9 10 10 12 11 9 10 12 12 10 8 11 12 10 8 9 9 11 11 10 11 9 9 8
7 8 8 8 8 9 10 10 11 12 11 11 11 11 10 10 10 10 9 9 9 9 10 10 12 12 12 10 12 13 13 13 13 12 9 9 10 10 10 9 10 8 8
Wind_Direction
4 351 338 336 335 331 327 327 327 323 324 324 320 316 308 297 276 255 245 241 243 244 239 239 241 234 236 234 232 230 222 199 204 195 184 174 175 181 187 182 184 187 192
338 330 321 319 319 316 312 313 315 314 313 312 312 311 307 302 291 273 260 248 245 246 242 241 243 236 238 232 229 230 227 214 195 180 183 166 183 185 181 181 186 185 183
316 314 310 308 307 304 304 305 304 302 301 301 302 303 301 298 293 282 270 260 251 248 243 243 243 237 241 234 229 229 226 220 210 179 181 173 167 175 170 175 179 180 187
294 295 294 291 289 289 291 291 290 290 290 290 289 289 289 289 286 282 276 270 263 256 248 245 243 239 242 234 231 229 220 217 213 197 178 175 164 169 173 175 184 192 194
272 274 276 280 284 283 281 280 279 277 277 277 280 280 279 279 278 280 276 271 268 266 259 252 247 244 242 236 232 224 214 216 211 207 193 173 179 175 185 182 190 183 196
262 264 268 273 276 277 278 278 278 276 274 273 273 274 274 274 281 285 284 275 270 267 265 260 253 248 245 244 241 230 217 217 217 216 211 201 199 189 178 179 173 168 201
263 264 266 267 270 272 274 275 276 277 277 277 275 272 272 274 281 283 283 280 273 269 266 263 257 250 243 244 246 243 234 227 221 216 221 218 197 189 184 183 188 185 192
275 271 269 267 267 269 269 270 271 274 276 278 280 279 278 277 280 282 282 279 271 267 264 261 259 255 243 240 238 239 238 235 229 224 226 221 204 192 193 193 191 175 91
286 287 289 289 288 285 280 279 279 279 278 276 277 277 276 279 281 283 283 276 269 267 263 259 257 256 253 247 242 240 240 239 238 229 226 218 207 195 186 177 173 172 177
307 311 314 315 312 308 302 299 295 288 283 283 281 279 277 278 281 283 283 276 269 266 263 258 253 252 254 251 243 239 239 236 224 230 227 222 210 201 193 190 185 187 178
327 323 321 322 317 310 306 304 303 298 293 287 283 281 278 277 280 280 279 272 264 263 261 259 255 257 257 255 247 239 240 233 217 218 220 212 201 199 199 197 196 192 186
324 321 318 313 308 304 299 296 294 292 289 287 284 281 276 275 276 277 277 273 268 261 258 258 257 262 262 260 253 242 240 236 224 216 217 214 210 205 198 189 187 188 179
318 312 307 303 299 296 293 293 291 286 283 284 283 283 283 281 281 284 284 283 280 273 264 261 262 265 265 263 256 246 236 228 218 215 216 215 207 195 177 167 155 128 104
308 306 303 301 297 292 288 287 285 284 282 282 282 283 284 283 283 285 284 286 284 281 277 274 273 270 265 257 249 243 229 221 215 215 212 204 188 184 184 179 172 161 142
304 303 301 297 295 293 288 282 283 276 274 280 276 274 277 277 275 278 278 277 277 276 283 279 266 258 251 248 239 228 221 216 213 208 201 194 189 188 186 181 175 170 168
304 303 300 298 295 293 292 290 285 285 286 286 285 284 281 281 285 283 281 279 279 278 277 269 264 254 246 242 236 223 215 214 208 199 194 188 184 182 177 175 176 178 175
298 299 297 296 295 294 294 294 294 292 288 288 287 288 287 287 288 286 284 281 277 273 267 261 259 254 241 233 229 221 214 205 195 190 185 179 174 173 172 173 177 179 177
296 294 293 292 291 291 291 291 291 293 295 290 288 288 290 290 290 289 286 283 274 267 258 256 253 250 236 225 222 214 199 186 184 183 177 174 172 171 173 177 179 178 173
297 294 292 292 291 291 291 290 290 289 289 290 291 291 290 292 293 290 289 278 267 259 254 251 247 240 227 214 206 194 185 181 178 176 174 171 171 170 173 175 176 175 169
298 297 299 297 296 295 295 295 295 293 292 292 293 295 295 289 285 285 279 270 260 253 247 245 241 227 208 195 183 175 174 173 171 169 167 167 167 169 169 169 170 169 167
301 301 301 302 301 301 302 303 304 304 304 303 300 301 308 307 301 298 295 290 279 262 248 235 218 198 184 173 165 163 162 161 159 157 157 158 158 159 158 159 160 157 152
305 306 307 307 307 308 310 311 313 317 318 317 316 317 321 318 312 312 313 311 309 305 292 255 149 149 151 149 151 151 150 147 147 147 147 148 148 148 147 148 149 149 148
311 311 312 313 314 316 319 322 323 324 325 326 326 329 331 331 331 332 333 337 346 355 6 32 63 69 69 78 98 127 140 145 146 147 146 146 145 145 145 146 146 144 144
314 317 319 320 322 324 326 328 330 333 334 335 337 338 340 342 344 348 352 357 5 14 22 32 45 56 65 68 71 79 95 111 123 134 139 141 140 138 137 137 137 140 139
318 321 323 325 327 329 330 332 335 337 339 342 343 345 347 350 354 358 2 9 18 28 33 35 40 48 60 68 74 84 103 109 112 117 122 125 126 125 127 127 128 131 132
323 326 328 329 331 333 335 336 338 341 343 346 348 351 354 358 2 7 11 17 25 31 36 39 45 53 60 67 78 89 97 101 103 106 109 113 115 116 118 119 124 127 131